Location: S�tio Afonso Gruber
(26.1760°S, 49.5250°W)
Time: 23:52:11
(UTC+00:00)

Intelsat 5-3 Rocket - Pass Details

Date: 06 October 2020
Orbit: 281 x 6111 km, 23.6° (Epoch: 22 October)

Event Time Altitude Azimuth Distance (km) Brightness Sun altitude
Exits shadow 03:26:30 48° 78° (ENE) 5,304 6.9 -58.2°
Drops below altitude 10° 03:51:06 10° 81° (E) 9,550 8.6 -56.7°
Sets 04:00:14 0° 81° (E) 10,745 9.0 -55.9°
